Regional Weather Roundup
Issued by NWS

Home | Current Version | Previous Version | Text Only | Print | Product List | Glossary Off
Versions: 1 2 3 4 5 6 7 8 9 10 11 12 13 14 15 16 17 18 19 20 21 22 23 24 25 26 27 28 29 30 31 32 33 34 35 36 37 38 39 40 41 42 43 44 45 46 47 48 49 50

000
ASUS43 KBIS 030202
RWRND

NORTH DAKOTA REGIONAL WEATHER ROUNDUP
NATIONAL WEATHER SERVICE BISMARCK ND
900 PM CDT THU JUL 02 2015

NOTE: "FAIR" INDICATES FEW OR NO CLOUDS BELOW 12,000 FEET WITH NO
SIGNIFICANT WEATHER AND/OR OBSTRUCTIONS TO VISIBILITY.


NDZ001>003-009>011-017-030300-
NORTHWEST NORTH DAKOTA

CITY           SKY/WX    TMP DP  RH WIND       PRES   REMARKS
WILLISTON      CLEAR     79  59  50 N5        29.99S
MINOT          CLOUDY    72  64  76 NW9       29.95S HAZE
MINOT AFB      MOCLDY    73  73  99 NW6       29.94S HAZE
$$

NDZ018>021-031>035-040>046-030300-
SOUTHWEST NORTH DAKOTA

CITY           SKY/WX    TMP DP  RH WIND       PRES   REMARKS
BISMARCK       CLOUDY    74  63  68 NW7       29.96F HAZE
DICKINSON      CLEAR     73  59  61 N5        30.01R
GARRISON         N/A     72  67  84 NW5       29.97S
HETTINGER ARPT PTCLDY    73  61  65 N3        30.04S HAZE
$$

NDZ004>008-012>016-024-026-027-054-030300-
NORTHEAST NORTH DAKOTA

CITY           SKY/WX    TMP DP  RH WIND       PRES   REMARKS
GRAND FORKS    CLOUDY    72  66  81 SW6       29.88R
GRND FRKS AFB  PTCLDY    70  65  83 W6        29.89S
DEVILS LAKE    CLEAR     72  61  68 W7        29.91S
$$

NDZ022-023-025-028>030-036>039-047>053-030300-
SOUTHEAST NORTH DAKOTA

CITY           SKY/WX    TMP DP  RH WIND       PRES   REMARKS
FARGO          MOCLDY    71  54  54 S8        29.92S
JAMESTOWN      CLEAR     72  65  78 S5        29.92F
$$




USA.gov is the U.S. government's official web portal to all federal, state and local government web resources and services.